[ hide orbit diagram ]
For accurate long-term ephemerides, please instead use our Horizons system.This orbit viewer was implemented using two-body methods, and hence should not be used for determining accurate long-term trajectories (over several years or decades) or planetary encounter circumstances.
Orbital Elements at Epoch 2459000.5 (2020-May-31.0) TDB
Reference: JPL 22 (heliocentric ecliptic J2000)
Element | Value | Uncertainty (1-sigma) | Units |
e | .1690700749848375 | 2.8478e-08 | |
a | 2.229607877942217 | 6.6263e-09 | au |
q | 1.852647906831742 | 6.2293e-08 | au |
i | 3.523172116622917 | 4.7109e-06 | deg |
node | 203.953929874293 | 5.2335e-05 | deg |
peri | 102.5902026215322 | 5.4346e-05 | deg |
M | 126.3359872128257 | 1.4965e-05 | deg |
tp | 2458573.757654607866 (2019-Mar-31.25765461) | 4.984e-05 | TDB |
period | 1216.021244068545 3.33 | 5.421e-06 1.484e-08 | d yr |
n | .296047459496281 | 1.3198e-09 | deg/d |
Q | 2.606567849052692 | 7.7466e-09 | au |
|
| | Orbit Determination Parameters
Additional Information
|
[ show covariance matrix ]
Physical Parameter Table
Parameter |
Symbol |
Value |
Units |
Sigma |
Reference |
Notes |
absolute magnitude |
H |
15.9 |
|
n/a |
MPO502575 |
|
|
66667 Kambič | Discovered 1999 Oct. 8 at Črni Vrh Observatory. |
Bojan Kambič (b. 1959) is the founder and editor of the first Slovenian astronomical magazine Spika, regularly published since 1993. Spika greatly influenced the Slovenian astronomical community, boosted various astronomical activities and thoroughly changed the face of astronomy in Slovenia. |
NOTE: some special characters may not display properly (any characters within {} are an attempt to place the proper accent above a character) |
Reference: 20050919/MPCPages.arc | Last Updated: 2005-09-26 |
|
|